SZ-13 MODULE (52260 NORAD) Tracking and Keplerian Element Data

This shows tracking and keplerian element data for the satellite.

Feedback or suggestion? Click here.




ElementValue
Catalog52260
NameSZ-13 MODULE
Epoch Orbit5035
Epoch Day62.3318971
Epoch Year2023
RAAN33.4217
Inclination41.4673
Eccentricity0.0010095
Argument of Perigee202.0765
Mean Anonmoly158.0431
Mean Motion16.1930878
Decay Rate0.01062237
L11 52260U 21092C 23062.33189710 .01062237 77656-5 54720-3 0 9992
L22 52260 41.4673 33.4217 0010095 202.0765 158.0431 16.19308780 50357



Live tracking and technical data element details for SZ-13 MODULE (NORAD 52260). SZ-13 MODULE can be tracked NOW for your location showing map with azimuth and elevation plus other details from your city location.







IsCatalogInMostPopularTable: catalog: 52260, numindb: 35
Update: records affected: 1



GetName: 52260 SZ-13 MODULE

Hit Count: updated at: Sun, 14 Apr 2024 22:53:47 GMT